Location: Chiroubles
(46.1812°N, 4.6660°E)
Time: 03:39:22
(UTC+00:00)

H-2A R/B - Pass Details

Date: 15 August 2020
Orbit: 575 x 597 km, 98.2° (Epoch: 27 September)

Event Time Altitude Azimuth Distance (km) Brightness Sun altitude
Rises 21:04:58 0° 7° (N) 2,812 7.5 -20.1°
Reaches altitude 10° 21:07:11 10° 2° (N) 1,911 6.7 -20.3°
Maximum altitude 21:11:08 45° 290° (WNW) 803 4.5 -20.8°
Enters shadow 21:14:48 12° 218° (SW) 1,802 5.8 -21.2°
